Weather History for Luverne, MN

Change the Weather History Date:

Wednesday, January 29, 2014

  Actual Average (KFSD) Record (KFSD)
Temperature  
Mean Temperature 18 °F 18 °F  
Max Temperature 41 °F 27 °F 62 °F (1931)
Min Temperature -4 °F 8 °F -29 °F (1966)
Degree Days  
Heating Degree Days 46 48  
Month to date heating degree days 1410  
Since 1 July heating degree days 4543  
Cooling Degree Days 0 0  
Month to date cooling degree days 0  
Year to date cooling degree days 0  
Moisture  
Dew Point 7 °F    
Average Humidity 64    
Maximum Humidity 85    
Minimum Humidity 44    
Precipitation  
Precipitation 0.00 in 0.02 in 0.90 in (1922)
Month to date precipitation 0.52  
Year to date precipitation 0.52  
Snow  
Snow 0.00 in 0.30 in 6.00 in (1922)
Month to date snowfall 7.2  
Since 1 July snowfall 24.1  
Snow Depth -    
Sea Level Pressure  
Sea Level Pressure 29.78 in    
Wind  
Wind Speed 6 mph (SSW)    
Max Wind Speed 23 mph    
Max Gust Speed 28 mph    
Visibility 10 miles    
Events      
T = Trace of Precipitation, MM = Missing Value Source: NWS Daily Summary

Daily Weather History Graph

Daily Weather History Graph

Search for Another Location

Airport:

Trip Planner

Search our weather history database for the weather conditions in past years. The results will help you decide how hot, cold, wet, or windy it might be!

Date:

Astronomy

Jan. 29, 2014 Rise Set
Actual Time 7:44 AM CST 5:32 PM CST
Civil Twilight 7:13 AM CST 6:02 PM CST
Nautical Twilight 6:39 AM CST 6:37 PM CST
Astronomical Twilight 6:05 AM CST 7:11 PM CST
Moon 6:22 AM CST (1/29) 4:33 PM CST (1/29)
Length of Visible Light 10h 49m
Length of Day
9h 47m
Waning Crescent, 2% of the Moon is Illuminated
Jan 29
Waning Crescent
Jan 30
New
Feb 6
First Quarter
Feb 14
Full
Feb 22
Last Quarter

Hourly Weather History & Observations

Time (CST) Temp. Windchill Dew Point Humidity Pressure Visibility Wind Dir Wind Speed Gust Speed Precip Events Conditions
12:15 AM -2.2 °F - -7.6 °F 78% 30.11 in 10.0 mi Calm Calm - N/A   Clear
12:34 AM -0.4 °F -8.3 °F -7.6 °F 72% 30.10 in 10.0 mi SW 3.5 mph - N/A   Clear
12:55 AM -0.4 °F -14.7 °F -7.6 °F 72% 30.10 in 10.0 mi WSW 8.1 mph - N/A   Clear
1:15 AM -0.4 °F -10.4 °F -7.6 °F 72% 30.09 in 10.0 mi SW 4.6 mph - N/A   Clear
1:34 AM -2.2 °F -10.4 °F -9.4 °F 71% 30.09 in 10.0 mi SW 3.5 mph - N/A   Clear
1:55 AM -0.4 °F - -7.6 °F 72% 30.09 in 10.0 mi Calm Calm - N/A   Clear
2:15 AM -0.4 °F -10.4 °F -7.6 °F 72% 30.08 in 10.0 mi South 4.6 mph - N/A   Clear
2:35 AM -2.2 °F -10.4 °F -7.6 °F 78% 30.08 in 10.0 mi South 3.5 mph - N/A   Clear
2:55 AM -0.4 °F - -7.6 °F 72% 30.07 in 10.0 mi Calm Calm - N/A   Clear
3:15 AM -4.0 °F - -9.4 °F 78% 30.06 in 10.0 mi Calm Calm - N/A   Clear
3:34 AM -2.2 °F - -7.6 °F 78% 30.05 in 10.0 mi Calm Calm - N/A   Clear
3:55 AM -0.4 °F - -7.6 °F 72% 30.04 in 10.0 mi Calm Calm - N/A   Clear
4:15 AM -2.2 °F - -7.6 °F 78% 30.03 in 10.0 mi Calm Calm - N/A   Clear
4:35 AM -4.0 °F - -7.6 °F 85% 30.02 in 10.0 mi Calm Calm - N/A   Clear
4:55 AM -2.2 °F - -7.6 °F 78% 30.01 in 10.0 mi Calm Calm - N/A   Clear
5:15 AM -4.0 °F - -7.6 °F 85% 30.01 in 10.0 mi Calm Calm - N/A   Clear
5:35 AM -2.2 °F - -7.6 °F 78% 30.00 in 10.0 mi Calm Calm - N/A   Clear
5:55 AM -4.0 °F - -9.4 °F 78% 29.99 in 10.0 mi Calm Calm - N/A   Clear
6:15 AM -4.0 °F - -9.4 °F 78% 29.97 in 10.0 mi Calm Calm - N/A   Clear
6:35 AM -4.0 °F - -9.4 °F 78% 29.97 in 10.0 mi Calm Calm - N/A   Clear
6:55 AM -4.0 °F -14.6 °F -9.4 °F 78% 29.95 in 10.0 mi South 4.6 mph - N/A   Clear
7:15 AM -4.0 °F - -7.6 °F 85% 29.95 in 10.0 mi Calm Calm - N/A   Clear
7:34 AM -4.0 °F -14.6 °F -7.6 °F 85% 29.94 in 10.0 mi South 4.6 mph - N/A   Clear
7:55 AM -4.0 °F -16.3 °F -9.4 °F 78% 29.93 in 10.0 mi South 5.8 mph - N/A   Clear
8:15 AM -4.0 °F -17.8 °F -9.4 °F 78% 29.92 in 10.0 mi South 6.9 mph - N/A   Clear
8:35 AM -0.4 °F -10.4 °F -7.6 °F 72% 29.92 in 10.0 mi SSW 4.6 mph - N/A   Clear
8:55 AM 1.4 °F -9.9 °F -4.0 °F 78% 29.90 in 10.0 mi South 5.8 mph - N/A   Clear
9:15 AM 3.2 °F -7.8 °F -4.0 °F 72% 29.91 in 10.0 mi South 5.8 mph - N/A   Clear
9:35 AM 6.8 °F -5.9 °F -0.4 °F 72% 29.90 in 10.0 mi South 8.1 mph - N/A   Clear
9:55 AM 10.4 °F 0.8 °F 3.2 °F 73% 29.89 in 10.0 mi South 5.8 mph - N/A   Clear
10:15 AM 14.0 °F 1.2 °F 5.0 °F 67% 29.88 in 10.0 mi South 10.4 mph - N/A   Clear
10:35 AM 17.6 °F 3.2 °F 5.0 °F 58% 29.86 in 10.0 mi SSW 15.0 mph - N/A   Clear
10:55 AM 21.2 °F 8.3 °F 8.6 °F 58% 29.85 in 10.0 mi South 13.8 mph - N/A   Clear
11:15 AM 23.0 °F 10.1 °F 8.6 °F 54% 29.83 in 10.0 mi South 15.0 mph - N/A   Clear
11:35 AM 26.6 °F 14.7 °F 12.2 °F 55% 29.81 in 10.0 mi South 15.0 mph 21.9 mph N/A   Clear
11:55 AM 28.4 °F 15.4 °F 12.2 °F 51% 29.79 in 10.0 mi South 19.6 mph 24.2 mph N/A   Clear
12:15 PM 30.2 °F 18.9 °F 14.0 °F 51% 29.76 in 10.0 mi South 16.1 mph - N/A   Clear
12:35 PM 32.0 °F 19.8 °F 14.0 °F 48% 29.74 in 10.0 mi South 20.7 mph - N/A   Clear
12:55 PM 32.0 °F 20.1 °F 17.6 °F 55% 29.72 in 10.0 mi SSW 19.6 mph 24.2 mph N/A   Clear
1:15 PM 33.8 °F 21.6 °F 15.8 °F 48% 29.71 in 10.0 mi SSW 23.0 mph 27.6 mph N/A   Clear
1:35 PM 33.8 °F 22.2 °F 17.6 °F 52% 29.70 in 10.0 mi SSW 20.7 mph - N/A   Clear
1:55 PM 35.6 °F 25.2 °F 15.8 °F 44% 29.68 in 10.0 mi SSW 18.4 mph 25.3 mph N/A   Clear
2:15 PM 35.6 °F 24.5 °F 17.6 °F 48% 29.66 in 10.0 mi SSW 20.7 mph - N/A   Clear
2:35 PM 37.4 °F 27.2 °F 19.4 °F 48% 29.65 in 10.0 mi SSW 19.6 mph - N/A   Clear
2:54 PM 37.4 °F 27.8 °F 19.4 °F 48% 29.64 in 10.0 mi SSW 17.3 mph - N/A   Clear
3:15 PM 39.2 °F 30.2 °F 19.4 °F 45% 29.63 in 10.0 mi SSW 17.3 mph - N/A   Clear
3:35 PM 39.2 °F 32.0 °F 23.0 °F 52% 29.62 in 10.0 mi SSW 11.5 mph - N/A   Clear
3:55 PM 41.0 °F 33.9 °F 23.0 °F 49% 29.62 in 10.0 mi SSW 12.7 mph - N/A   Clear
4:15 PM 39.2 °F 32.0 °F 23.0 °F 52% 29.61 in 10.0 mi SSW 11.5 mph - N/A   Clear
4:35 PM 39.2 °F 31.6 °F 23.0 °F 52% 29.61 in 10.0 mi SSW 12.7 mph - N/A   Clear
4:55 PM 39.2 °F 31.2 °F 21.2 °F 49% 29.60 in 10.0 mi SSW 13.8 mph - N/A   Clear
5:15 PM 37.4 °F 29.8 °F 21.2 °F 52% 29.60 in 10.0 mi SSW 11.5 mph - N/A   Clear
5:35 PM 35.6 °F 28.6 °F 21.2 °F 56% 29.60 in 10.0 mi SW 9.2 mph - N/A   Clear
5:55 PM 32.0 °F 26.4 °F 21.2 °F 64% 29.59 in 10.0 mi SW 5.8 mph - N/A   Clear
6:15 PM 32.0 °F 27.5 °F 21.2 °F 64% 29.59 in 10.0 mi SW 4.6 mph - N/A   Clear
6:35 PM 32.0 °F 28.7 °F 19.4 °F 60% 29.58 in 10.0 mi SSE 3.5 mph - N/A   Clear
6:55 PM 32.0 °F - 19.4 °F 60% 29.58 in 10.0 mi Calm Calm - N/A   Clear
7:15 PM 30.2 °F - 19.4 °F 64% 29.58 in 10.0 mi Calm Calm - N/A   Clear
7:35 PM 30.2 °F 26.7 °F 17.6 °F 60% 29.56 in 10.0 mi SSE 3.5 mph - N/A   Clear
7:55 PM 30.2 °F - 15.8 °F 55% 29.56 in 10.0 mi Calm Calm - N/A   Clear
8:15 PM 28.4 °F 24.6 °F 14.0 °F 55% 29.55 in 10.0 mi South 3.5 mph - N/A   Clear
8:35 PM 28.4 °F 23.3 °F 14.0 °F 55% 29.54 in 10.0 mi South 4.6 mph - N/A   Clear
8:55 PM 26.6 °F - 14.0 °F 59% 29.53 in 10.0 mi Calm Calm - N/A   Clear
9:15 PM 28.4 °F 23.3 °F 15.8 °F 59% 29.52 in 10.0 mi South 4.6 mph - N/A   Clear
9:35 PM 28.4 °F 24.6 °F 15.8 °F 59% 29.51 in 10.0 mi South 3.5 mph - N/A   Clear
9:54 PM 30.2 °F 22.6 °F 17.6 °F 60% 29.51 in 10.0 mi South 8.1 mph - N/A   Clear
10:15 PM 32.0 °F 24.8 °F 17.6 °F 55% 29.50 in 10.0 mi SSW 8.1 mph - N/A   Clear
10:35 PM 32.0 °F 23.6 °F 19.4 °F 60% 29.49 in 10.0 mi South 10.4 mph - N/A   Scattered Clouds
10:54 PM 32.0 °F 23.6 °F 19.4 °F 60% 29.48 in 10.0 mi South 10.4 mph - N/A   Scattered Clouds
11:15 PM 32.0 °F 24.2 °F 19.4 °F 60% 29.47 in 10.0 mi South 9.2 mph - N/A   Mostly Cloudy
11:35 PM 32.0 °F 26.4 °F 19.4 °F 60% 29.47 in 10.0 mi South 5.8 mph - N/A   Overcast
11:55 PM 32.0 °F 27.5 °F 17.6 °F 55% 29.46 in 10.0 mi SSE 4.6 mph - N/A   Overcast